Location: Camp at the Woods
(43.2055°N, 93.0905°W)
Time: 10:32:26
(UTC+00:00)

BlueWalker 3 - Pass Details

Date: 20 April 2024
Orbit: 482 x 494 km, 53.2° (Epoch: 22 May)

Event Time Altitude Azimuth Distance (km) Brightness Sun altitude
Rises 04:05:00 0° 282° (WNW) 2,576 6.2 -28.0°
Reaches altitude 10° 04:07:37 10° 300° (WNW) 1,697 5.4 -28.3°
Maximum altitude 04:10:32 20° 349° (N) 1,193 4.4 -28.6°
Enters shadow 04:11:45 18° 15° (NNE) 1,297 4.4 -28.7°
